Судьбодаровка

Россия / Оренбургская область     52°19′59″N   54°04′48″E
темп.,
°C
ветер,
м/с
пор.,
м/с
влажн.,
%
обл.,
%
осадки,
мм/ч
давл.,
гПа
погр.,
м
26 июля, пн
пн2623:00+16ссз33430 0.0 102035
02:00+13с33460 0.0 102152
05:00+12сз22500 0.0 102116
08:00+14ссз34470 0.0 1022247
11:00+20с44350 0.0 10221064
14:00+23с44274 0.0 10212338
17:00+23ссз55265 0.0 10202504
20:00+22ссз57316 0.0 1020508
27 июля, вт
вт2723:00+17ссз22385 0.0 102012
02:00+14ссз33474 0.0 102024
05:00+13ссз22525 0.0 102014
08:00+17ссз24443 0.0 1020192
11:00+22сз45345 0.0 10191764
14:00+25сз452851 0.0 10182804
17:00+26ссз662742 0.0 10162931
20:00+23ссз473664 0.0 1016495
28 июля, ср
ср2823:00+18з225124 0.0 101511
02:00+16зсз35600 0.0 101584
05:00+13сз33830 0.0 101553
08:00+16с59715 0.0 1016491
11:00+21с68400 0.0 10161812
14:00+24с56315 0.0 10152371
17:00+25ссз56275 0.0 10142663
20:00+23с46333 0.0 1014458
29 июля, чт
чт2923:00+17св11472 0.0 101511
02:00+15юз11500 0.0 101511
05:00+14юз11550 0.0 101511
08:00+19юз23448 0.0 1015180
11:00+25зюз442998 0.0 10141658
14:00+28зюз452688 0.0 10132712
17:00+28зюз2628100 0.0 10112714
20:00+25с1239100 0.1 101050
30 июля, пт
пт3023:00+18св2473100 0.1 1012140
02:00+18ююв397373 0.4 1010281
05:00+18ю277599 0.6 1009196
08:00+20зюз596480 0.1 1009347
11:00+27з694661 0.1 10081382
14:00+27зюз61039100 0.2 10071998
17:00+29з8113296 0.2 10072691
20:00+27зсз61036100 0.0 1008742